COSMOS 2411 (GLONASS) 1 28509U 04053B 25136.50402233 .00000000 00000-0 00000-0 0 9992 2 28509 63.9494 74.2016 0003081 215.0722 333.4769 2.13096356158668 COSMOS 2419 (GLONASS) 1 28915U 05050A 25132.44098543 -.00000046 00000-0 00000-0 0 9996 2 28915 65.7854 329.5650 0014529 337.9422 19.2465 2.13108402150827 COSMOS 2433 (GLONASS) 1 32275U 07052A 25135.92331802 -.00000033 00000-0 00000-0 0 9994 2 32275 65.7918 329.2732 0000998 201.4847 158.5332 2.13104154136599 COSMOS 2432 (GLONASS) 1 32276U 07052B 25136.23643030 -.00000031 00000-0 00000-0 0 9997 2 32276 65.8070 329.3828 0008900 337.5353 207.8969 2.13103268136624 COSMOS 2434 (GLONASS) 1 32393U 07065A 25134.23455105 .00000054 00000-0 00000-0 0 9997 2 32393 64.3140 205.3765 0001029 53.3460 342.6023 2.13101452135278 COSMOS 2435 (GLONASS) 1 32394U 07065B 25134.95488929 .00000052 00000-0 00000-0 0 9995 2 32394 64.3176 205.3473 0024560 356.4938 3.5719 2.13115407135254 COSMOS 2442 (GLONASS) 1 33378U 08046A 25132.27408024 -.00000046 00000-0 00000-0 0 9993 2 33378 65.6846 328.3758 0018225 307.1951 259.5097 2.13108231129405 COSMOS 2443 (GLONASS) 1 33379U 08046B 25134.23950777 -.00000040 00000-0 00000-0 0 9993 2 33379 65.6947 328.4232 0013004 173.2619 184.0403 2.13098517129441 COSMOS 2444 (GLONASS) 1 33380U 08046C 25135.24946172 -.00000036 00000-0 00000-0 0 9996 2 33380 65.7031 328.4370 0018836 293.8912 274.8284 2.13112341129463 COSMOS 2447 (GLONASS) 1 33466U 08067A 25134.17753228 -.00000003 00000-0 00000-0 0 9997 2 33466 64.5836 83.0926 0007272 263.9614 279.3769 2.13107735127465 COSMOS 2449 (GLONASS) 1 33467U 08067B 25135.41248190 .00000008 00000-0 00000+0 0 9996 2 33467 64.5734 82.9630 0032795 238.8059 120.8500 2.13097089127558 COSMOS 2458 (GLONASS) 1 36113U 09070C 25136.41643874 .00000019 00000-0 00000-0 0 9994 2 36113 64.7723 84.4292 0006411 317.6255 136.8451 2.13082965120002 COSMOS 2466 (GLONASS) 1 37137U 10041A 25135.14918983 .00000053 00000-0 00000-0 0 9994 2 37137 63.8907 203.7211 0017689 179.4776 178.2822 2.13112683114355 COSMOS 2465 (GLONASS) 1 37138U 10041B 25137.48138741 .00000044 00000-0 00000+0 0 9999 2 37138 63.9067 203.7924 0040725 179.9286 183.6784 2.13098312114453 COSMOS 2471 (GLONASS) 1 37372U 11009A 25136.56005067 -.00000029 00000-0 00000-0 0 9991 2 37372 65.6292 327.8591 0008799 330.7741 210.3693 2.12911493110634 COSMOS 2474 (GLONASS) 1 37829U 11055A 25135.85682616 .00000018 00000-0 00000-0 0 9998 2 37829 65.0677 86.3104 0010962 249.6950 329.4930 2.13101300105981 COSMOS 2475 (GLONASS) 1 37869U 11064C 25136.38589780 .00000023 00000-0 00000-0 0 9995 2 37869 65.0620 86.3840 0026288 255.8794 193.0279 2.13101857105318